[[{"header":{"parameterUnit":"m.s-1","parameterCategory":1,"la1":30.2991,"la2":30.254,"lo1":-89.0895,"lo2":-89.0444,"dy":0.0017,"dx":0.0017,"nx":28,"ny":28,"refTime":"2025-04-28T21:00:00:Z","depth":0,"parameterNumber":2,"parameterNumberName":"U-component_of_WINDS"},"data":[0,0,0,0,0,0,0,0,0,0,0,0,0,0,0,0,0,0,0,0,0,0,0,0,0,0,0,0,0,0,0,0,0,0,0,0,0,0,0,0,0,0,0,0,0,0,0,0,0,0,0,0,0,0,0,0,0,0,0.0516,0.0515,0,0.0463,0.0462,0.0462,0.0432,0.0432,0.0432,0.0432,0.0374,0.0373,0.0372,0,0,0,0,0,0,0,0,0,0,0,0,0,0.0588,0.0587,0.0516,0.0515,0.0515,0.0463,0.0462,0.0462,0.0432,0.0432,0.0432,0.0432,0.0375,0.0373,0.0371,0,0,0,0,0,0,0,0,0,0,0,0,0,0.0548,0.0587,0.0516,0.0494,0.0491,0.0463,0.0462,0.0461,0.0432,0.0432,0.0432,0.0432,0.0375,0.0373,0.0371,0.036,0,0,0.0365,0.0364,0,0,0,0,0,0,0,0,0.055,0.0545,0.0498,0.0495,0.0492,0.0454,0.0467,0.0427,0.0432,0.0454,0.0432,0.0432,0.0401,0.0397,0.0387,0.0358,0.0355,0.0364,0.0363,0.0362,0.0361,0,0,0,0,0,0,0,0.0553,0.0548,0.0495,0.0497,0.0494,0.0485,0.0479,0.0459,0.0429,0.0452,0.045,0.0444,0.0399,0.0389,0.0385,0.0354,0.0364,0.0362,0.0361,0.036,0.0311,0.0311,0,0,0,0,0,0,0.056,0.055,0.0497,0.0493,0.0522,0.0484,0.0477,0.0466,0.0429,0.0423,0.0445,0.0443,0.0393,0.0388,0.0383,0.0366,0.0362,0.036,0.0359,0.0311,0.0311,0.0311,0,0,0,0,0,0,0.0562,0.0556,0.0499,0.0521,0.0513,0.0483,0.0471,0.0465,0.0455,0.0423,0.0417,0.044,0.0392,0.0386,0.0366,0.0364,0.0359,0.0357,0.0311,0.0311,0.0311,0.0334,0,0,0,0,0,0,0.0564,0.0556,0.0553,0.0521,0.0512,0.0484,0.0471,0.0464,0.0452,0.0449,0.0417,0.0412,0.0392,0.0369,0.0364,0.0361,0.0355,0.0311,0.0311,0.0311,0.0333,0.0335,0.0336,0,0,0,0,0,0.0567,0.0561,0.0553,0.0547,0.0507,0.0484,0.0478,0.0457,0.0452,0.0447,0.0426,0.0413,0.0365,0.0367,0.0361,0.0358,0.0311,0.0311,0.0311,0.0333,0.0335,0.0336,0,0,0,0,0,0,0.0593,0.0557,0.0547,0.0532,0.0511,0.0479,0.0473,0.046,0.0439,0.0438,0.0411,0.0404,0.0386,0.037,0.0373,0.0344,0.0337,0.0335,0.0355,0.0357,0.0358,0.0362,0.0354,0,0,0,0,0,0.0597,0.0582,0.0551,0.054,0.053,0.0503,0.0492,0.0477,0.0454,0.0445,0.0423,0.0401,0.038,0.0368,0.0348,0.0331,0.0322,0.0325,0.0327,0.0328,0.0327,0.0315,0.0315,0.0311,0.0311,0.0311,0,0,0.0605,0.0584,0.0576,0.0545,0.0527,0.0511,0.0496,0.048,0.0467,0.0443,0.0422,0.0405,0.0378,0.0359,0.0349,0.0345,0.0326,0.0328,0.0329,0.0327,0.0315,0.0316,0.0316,0.0311,0.0311,0.0311,0,0,0.0612,0.0595,0.0583,0.0566,0.0539,0.0521,0.0518,0.0488,0.0475,0.0455,0.0435,0.0419,0.0385,0.0366,0.0352,0.035,0.0336,0.0344,0.0351,0.034,0.034,0.034,0.0338,0.0338,0.0343,0.0343,0.0343,0,0.0625,0.0601,0.0579,0.0563,0.0549,0.0527,0.0514,0.0498,0.0466,0.0456,0.0452,0.0408,0.0388,0.0364,0.0363,0.0353,0.0347,0.0347,0.0342,0.0342,0.0342,0.0339,0.0339,0.0344,0.0344,0.0344,0.0344,0,0.0618,0.0601,0.0595,0.0565,0.055,0.0536,0.0511,0.0498,0.0484,0.0466,0.0444,0.0419,0.0393,0.0386,0.0372,0.0359,0.0357,0.0348,0.034,0.0344,0.0341,0.034,0.0346,0.0345,0.0345,0.0345,0,0,0.064,0.0597,0.0595,0.0581,0.0549,0.0535,0.0519,0.0494,0.0483,0.0462,0.0447,0.0418,0.0409,0.0393,0.0376,0.0367,0.0364,0.0358,0.0357,0.0359,0.0347,0.0353,0.0353,0.0355,0.0355,0.0354,0.0349,0,0.0641,0.0613,0.0591,0.057,0.0554,0.0531,0.0517,0.0496,0.0478,0.046,0.044,0.0419,0.041,0.04,0.0389,0.0367,0.0361,0.0367,0.0339,0.0338,0.0346,0.0352,0.0359,0.0355,0.0347,0.0347,0.0347,0,0.0638,0.0618,0.0596,0.0565,0.0557,0.0545,0.0519,0.0503,0.0477,0.0465,0.0446,0.0429,0.0409,0.0403,0.0375,0.0379,0.0366,0.0353,0.0353,0.0349,0.0343,0.0347,0.0353,0.0352,0.0345,0.0346,0.0346,0,0.0655,0.0622,0.0604,0.0592,0.0556,0.0548,0.0532,0.0506,0.0492,0.0469,0.0459,0.0434,0.0421,0.0401,0.0376,0.0375,0.035,0.0342,0.0338,0.0338,0.0333,0.0334,0.0337,0.0326,0.0326,0.0326,0.0326,0,0.0658,0.0645,0.0611,0.06,0.0584,0.0559,0.0543,0.0525,0.0502,0.0486,0.0465,0.045,0.0419,0.04,0.038,0.0359,0.0353,0.0341,0.0336,0.0343,0.0344,0.0333,0.0333,0.0326,0.0326,0.0326,0.0326,0,0.0674,0.0651,0.063,0.0597,0.0588,0.0578,0.0549,0.0537,0.0517,0.0497,0.0491,0.046,0.0436,0.041,0.0377,0.0364,0.0343,0.0336,0.0352,0.0349,0.0346,0.0346,0.0341,0.0339,0.0331,0.0331,0.0331,0,0.0677,0.0667,0.0633,0.0621,0.0606,0.0587,0.0573,0.0547,0.0533,0.0502,0.0492,0.0467,0.0445,0.0407,0.0381,0.0355,0.0347,0.0347,0.0343,0.035,0.0346,0.0347,0.0345,0.0348,0.0349,0.0349,0.0349,0,0.0685,0.0674,0.0654,0.063,0.0614,0.0593,0.0572,0.0563,0.0533,0.0517,0.0493,0.0476,0.0442,0.0417,0.0388,0.0369,0.0353,0.035,0.0348,0.0354,0.0363,0.0357,0.0355,0.0351,0.035,0.035,0.035,0.035,0.0694,0.0683,0.0657,0.0636,0.0617,0.0597,0.0584,0.0563,0.0543,0.0514,0.0499,0.0475,0.0447,0.0406,0.0389,0.0368,0.0363,0.036,0.0359,0.0358,0.0359,0.0367,0.0363,0.0362,0.0362,0.0362,0.0362,0,0.0699,0.0682,0.0662,0.0633,0.0616,0.0604,0.0579,0.0565,0.0544,0.052,0.0499,0.047,0.0445,0.0417,0.0389,0.0378,0.037,0.0371,0.0371,0.0367,0.0366,0.037,0.0378,0.0378,0.0378,0.0378,0.0378,0.0378,0.07,0.0681,0.0666,0.0637,0.0618,0.0595,0.0582,0.0563,0.0544,0.0513,0.0492,0.0474,0.0448,0.0418,0.0394,0.0386,0.0376,0.038,0.037,0.0369,0.0367,0.0366,0.037,0.0378,0.0378,0.0373,0.0373,0.0373]},{"header":{"parameterUnit":"m.s-1","parameterCategory":1,"la1":30.2991,"la2":30.254,"lo1":-89.0895,"lo2":-89.0444,"dy":0.0017,"dx":0.0017,"nx":28,"ny":28,"refTime":"2025-04-28T21:00:00:Z","depth":0,"parameterNumber":3,"parameterNumberName":"V-component_of_WINDS"},"data":[0,0,0,0,0,0,0,0,0,0,0,0,0,0,0,0,0,0,0,0,0,0,0,0,0,0,0,0,0,0,0,0,0,0,0,0,0,0,0,0,0,0,0,0,0,0,0,0,0,0,0,0,0,0,0,0,0,0,4.4581,4.458,0,4.4571,4.4571,4.4571,4.449,4.4488,4.4486,4.4484,4.4475,4.4476,4.4478,0,0,0,0,0,0,0,0,0,0,0,0,0,4.4526,4.4528,4.4581,4.458,4.458,4.4571,4.4571,4.4571,4.449,4.4488,4.4485,4.4483,4.4474,4.4476,4.4478,0,0,0,0,0,0,0,0,0,0,0,0,0,4.4537,4.4528,4.4581,4.4539,4.4535,4.4572,4.4571,4.4571,4.4491,4.4488,4.4485,4.4482,4.4473,4.4476,4.4478,4.4554,0,0,4.4486,4.4487,0,0,0,0,0,0,0,0,4.4536,4.4539,4.4545,4.4542,4.4538,4.4529,4.4549,4.4565,4.4491,4.4508,4.4484,4.448,4.4495,4.4495,4.45,4.4554,4.4553,4.4486,4.4487,4.4488,4.4489,0,0,0,0,0,0,0,4.4536,4.4539,4.4577,4.4545,4.4541,4.452,4.4518,4.4551,4.4518,4.4506,4.45,4.45,4.4492,4.4498,4.45,4.4553,4.4486,4.4488,4.4489,4.449,4.4665,4.4668,0,0,0,0,0,0,4.4541,4.4539,4.4577,4.4577,4.4529,4.4523,4.4521,4.4535,4.4518,4.4512,4.4503,4.4496,4.4496,4.4497,4.4499,4.4584,4.4488,4.4491,4.4492,4.4661,4.4665,4.4669,0,0,0,0,0,0,4.454,4.4545,4.4578,4.4556,4.4559,4.4528,4.4543,4.4536,4.4542,4.4515,4.4509,4.4515,4.4493,4.4495,4.454,4.4583,4.4492,4.4494,4.4658,4.4663,4.4667,4.4757,0,0,0,0,0,0,4.4539,4.4545,4.4574,4.4557,4.456,4.462,4.4546,4.4538,4.4546,4.4538,4.4525,4.452,4.4491,4.4537,4.4543,4.4584,4.4496,4.4654,4.466,4.4665,4.475,4.4764,4.4776,0,0,0,0,0,4.4537,4.4601,4.4576,4.4581,4.4596,4.4622,4.4624,4.4589,4.455,4.4578,4.4561,4.452,4.4578,4.4542,4.4548,4.4591,4.4651,4.4658,4.4665,4.4744,4.4761,4.4776,0,0,0,0,0,0,4.4624,4.4598,4.457,4.463,4.4629,4.4609,4.4643,4.4609,4.4619,4.4611,4.4567,4.4565,4.4616,4.4608,4.4569,4.4662,4.4607,4.4616,4.4665,4.4681,4.4694,4.4694,4.4498,0,0,0,0,0,4.465,4.4674,4.465,4.4705,4.4706,4.4675,4.4685,4.4659,4.4656,4.4655,4.4641,4.4639,4.4656,4.4669,4.4683,4.4749,4.4743,4.4781,4.4794,4.4805,4.4812,4.4843,4.4859,4.4692,4.4692,4.4692,0,0,4.4704,4.4693,4.4711,4.4722,4.4718,4.4743,4.4675,4.4705,4.4722,4.4659,4.4699,4.4689,4.4685,4.4739,4.4763,4.4734,4.4857,4.4814,4.4823,4.4824,4.4852,4.4868,4.4882,4.4697,4.4696,4.4695,0,0,4.4815,4.481,4.4854,4.4851,4.4845,4.4824,4.4835,4.4819,4.4809,4.4849,4.4801,4.4822,4.4853,4.4851,4.4854,4.4962,4.4924,4.4968,4.5036,4.5067,4.508,4.5091,4.5127,4.5141,4.4976,4.4976,4.4976,0,4.4883,4.4919,4.4881,4.4913,4.4918,4.4862,4.4905,4.4904,4.4904,4.4908,4.4877,4.4913,4.4906,4.4958,4.4984,4.499,4.4999,4.4968,4.5081,4.5092,4.5102,4.5136,4.515,4.4981,4.4981,4.498,4.498,0,4.5001,4.5027,4.5063,4.5063,4.5072,4.511,4.5077,4.5091,4.5064,4.5045,4.5085,4.5075,4.5085,4.5096,4.507,4.5144,4.5126,4.5089,4.5032,4.5124,4.5155,4.5168,4.4989,4.4987,4.4985,4.4984,0,0,4.5167,4.5144,4.5157,4.5155,4.5144,4.5163,4.5197,4.5207,4.5218,4.522,4.5246,4.5274,4.5238,4.5242,4.5215,4.5242,4.5325,4.5201,4.52,4.5222,4.5403,4.5429,4.5445,4.5301,4.5303,4.5305,4.5402,0,4.5271,4.5328,4.5294,4.5356,4.5377,4.5323,4.5353,4.5349,4.5332,4.5348,4.533,4.5349,4.5302,4.5303,4.5328,4.531,4.536,4.5303,4.5323,4.5324,4.5324,4.5462,4.549,4.5582,4.5414,4.5417,4.5418,0,4.5401,4.5406,4.547,4.5452,4.5459,4.5487,4.5491,4.5507,4.5501,4.5487,4.549,4.5456,4.5487,4.5433,4.5474,4.5435,4.5442,4.5434,4.5437,4.5436,4.5375,4.5462,4.5611,4.5624,4.5437,4.5436,4.5434,0,4.5511,4.5535,4.5575,4.5576,4.5556,4.5576,4.5569,4.556,4.5567,4.5571,4.5575,4.5583,4.5587,4.5594,4.5562,4.5526,4.5607,4.5551,4.5595,4.5596,4.5613,4.5612,4.5763,4.5622,4.5621,4.5621,4.5621,0,4.563,4.5671,4.5624,4.5649,4.5692,4.5652,4.5696,4.5683,4.5675,4.5695,4.565,4.567,4.5627,4.5643,4.5619,4.5655,4.5658,4.5647,4.5639,4.5649,4.5651,4.5652,4.5643,4.5625,4.5624,4.5623,4.5623,0,4.5761,4.5732,4.5771,4.5749,4.5744,4.5777,4.5758,4.5779,4.5759,4.5785,4.5789,4.5758,4.5774,4.5743,4.5756,4.5739,4.579,4.5774,4.5792,4.5786,4.5831,4.5826,4.5986,4.6004,4.5853,4.5855,4.5856,0,4.5837,4.5867,4.5847,4.5857,4.5852,4.587,4.5876,4.5838,4.5846,4.584,4.5861,4.5873,4.588,4.5908,4.5886,4.5895,4.5877,4.5932,4.5878,4.5886,4.5875,4.5872,4.5874,4.5943,4.5945,4.5946,4.5948,0,4.5976,4.5959,4.597,4.5975,4.5984,4.5986,4.5986,4.5996,4.5956,4.5967,4.5982,4.5988,4.5999,4.6011,4.6014,4.6006,4.597,4.5965,4.5975,4.5985,4.5993,4.5987,4.582,4.5961,4.596,4.5959,4.5958,4.5958,4.608,4.6102,4.6091,4.6104,4.6099,4.6099,4.6117,4.6099,4.611,4.6116,4.6093,4.6112,4.6103,4.6104,4.6099,4.6114,4.6089,4.6104,4.6108,4.6112,4.6118,4.5993,4.6115,4.6114,4.6114,4.6113,4.6113,0,4.6213,4.6203,4.6215,4.6214,4.6224,4.6189,4.6186,4.6196,4.6214,4.6208,4.6216,4.6232,4.6242,4.6221,4.6228,4.6244,4.6227,4.6247,4.6244,4.6242,4.6141,4.613,4.626,4.626,4.626,4.626,4.626,4.626,4.6284,4.6319,4.6301,4.6332,4.6322,4.634,4.6341,4.634,4.6335,4.6354,4.6363,4.6349,4.6336,4.6342,4.6349,4.6343,4.6347,4.6371,4.6359,4.6264,4.625,4.6236,4.6226,4.6373,4.6373,4.6459,4.646,4.646]}]]